#timestamp,LO_Frequency,Hit,StdDev 
1680325215.4,286047000.9,N
1680325235.2,286047001.1,N
1680325255.1,286047001.2,N
1680325256.0,286047001.2,N
1680325275.8,286047000.8,N
1680325295.6,286047002.2,N
1680325315.5,286047002.6,N
1680325335.3,286047004.4,N
1680325355.2,286047001.4,N
1680325375.9,286047002.2,N
1680325395.7,286047003.8,N
1680325415.6,286047003.2,N
1680325435.4,286047005.9,N
1680325455.2,286047003.6,N
1680325475.1,286047003.6,N
1680325476.0,286047003.6,N
1680325495.8,286047002.9,N
1680325515.7,286047002.9,N
1680325535.5,286047003.5,N
1680325555.4,286047003.7,N
1680325575.2,286047000.3,N
1680325595.0,286046999.5,N
1680325595.9,286046999.5,N
1680325615.8,286046997.1,N
1680325635.6,286046998.9,N
1680325655.5,286046998.2,N
1680325675.3,286047000.8,N
1680325695.1,286047000.1,N
1680325715.9,286047002.6,N
1680325735.7,286047002.7,N
1680325755.5,286047001.4,N
1680325775.4,286047003.3,N
1680325795.2,286047001.7,N
1680325815.1,286047003.9,N
1680325816.0,286047003.9,N
1680325835.8,286047002.0,N
1680325855.6,286046999.9,N
1680325875.5,286047000.4,N
1680325895.3,286046998.7,N
1680325915.1,286047002.8,N
1680325935.9,286047000.8,N
1680325955.2,286047000.8,N
1680325975.0,286047000.3,N
1680325976.0,286047000.3,N
1680325995.8,286047000.4,N
1680326015.6,286047000.7,N
1680326035.5,286046998.1,N
1680326055.3,286046999.8,N
1680326075.1,286046999.7,N
1680326095.9,286047000.1,N
1680326115.7,286047002.8,N
1680326135.6,286046999.7,N
1680326155.4,286046998.3,N
1680326175.2,286047000.0,N
1680326195.1,286046998.2,N
1680326196.0,286046998.2,N
1680326215.8,286046999.7,N
1680326235.7,286047002.1,N
1680326255.5,286047001.8,N
1680326275.3,286047002.2,N
1680326295.2,286047002.1,N
1680326315.0,286047002.2,N
1680326315.9,286047002.2,N
1680326335.7,286047004.3,N
1680326355.6,286047005.9,Y
1680326375.4,286047004.3,P
1680326395.3,286047002.7,N
1680326415.1,286047002.0,N
1680326416.0,286047002.0,N
1680326435.8,286047002.4,N
1680326455.7,286046999.7,N
1680326475.5,286047001.8,N
1680326495.3,286047002.7,N
1680326515.2,286047002.4,N
1680326535.0,286047003.5,N
1680326535.9,286047003.5,N
1680326555.8,286047005.8,Y
1680326575.6,286047002.8,P
1680326595.4,286047002.1,P
1680326615.3,286046999.8,N
1680326635.1,286047000.6,N
1680326655.9,286047000.6,N
1680326675.7,286046999.9,N
1680326695.5,286047001.1,N
1680326715.4,286046998.2,N
1680326735.2,286047000.4,N
1680326755.0,286047000.0,N
1680326755.9,286047000.0,N
1680326775.8,286047000.3,N
1680326795.6,286047000.0,N
1680326815.4,286047001.8,N
1680326835.3,286047003.6,Y
1680326855.1,286046999.7,P
1680326875.9,286047000.1,N
1680326895.7,286047001.2,N
1680326915.5,286046998.3,Y
1680326935.4,286046998.9,P
1680326955.2,286046999.5,N
1680326975.1,286047000.9,N
1680326976.0,286047000.9,N
1680326995.8,286046998.3,N
1680327015.6,286046998.8,N
1680327035.5,286047000.5,N
1680327055.3,286047001.0,N
1680327075.1,286046998.4,N
1680327095.9,286047001.2,N
1680327115.7,286046996.5,Y
1680327135.6,286046996.5,P
1680327155.4,286047000.6,N
1680327175.2,286047002.8,N
1680327195.1,286047000.8,N
1680327196.0,286047000.8,N
1680327215.8,286046998.2,N
1680327235.6,286047001.2,N
1680327255.5,286046998.5,N
1680327275.3,286046995.1,N
1680327295.2,286046995.1,N
1680327315.9,286046998.0,N
1680327335.7,286046999.4,N
1680327355.6,286046999.1,N
1680327375.4,286046998.9,N
1680327395.2,286046997.7,N
1680327415.1,286046999.1,N
1680327416.0,286046999.1,N
1680327435.8,286046999.1,N
1680327455.7,286046996.8,N
1680327475.5,286046995.1,N
1680327495.3,286046998.9,N
1680327515.2,286046998.4,N
1680327535.0,286047000.9,N
1680327535.9,286047000.9,N
1680327555.8,286047000.0,N
1680327575.6,286046998.4,N
1680327595.4,286046998.5,N
1680327615.3,286046998.6,N
1680327635.1,286047002.8,N
1680327655.9,286047000.1,N
1680327675.7,286046997.5,N
1680327695.5,286046997.3,N
1680327715.4,286046997.0,N
1680327735.2,286046999.6,N
1680327755.1,286046996.6,N
1680327756.0,286046996.6,N
1680327775.8,286046996.7,N
1680327795.6,286046997.4,N
1680327815.5,286046997.3,N
1680327835.3,286046997.0,N
1680327855.1,286046996.8,N
1680327875.9,286046999.0,N
1680327895.7,286046998.4,N
1680327915.6,286046999.1,N
1680327935.4,286046999.2,N
1680327955.2,286046998.7,N
1680327975.1,286046998.1,N
1680327976.0,286046998.1,N
1680327995.8,286047001.1,N
1680328015.6,286047001.2,N
1680328035.5,286046998.9,N
1680328055.3,286046996.5,N
1680328075.2,286046997.4,N
1680328095.9,286046999.2,N
1680328115.7,286047001.0,N
1680328135.6,286047000.9,N
1680328155.4,286046998.3,N
1680328175.2,286046997.5,N
1680328195.1,286046997.4,N
1680328196.0,286046997.4,N
1680328215.8,286046997.5,N
1680328235.7,286046995.5,Y
1680328255.5,286046997.1,P
1680328275.3,286046993.3,P
1680328295.2,286046995.5,N
1680328315.0,286046999.3,N
1680328315.9,286046999.3,N
1680328335.7,286046998.8,N
1680328355.6,286047000.2,N
1680328375.4,286047000.4,N
1680328395.3,286046998.2,N
1680328415.1,286046999.4,N
1680328416.0,286046999.4,N
1680328435.8,286046996.6,N
1680328455.7,286046996.5,N
1680328475.5,286046997.2,N
1680328495.3,286046996.9,N
1680328515.2,286046996.7,N
1680328535.0,286046997.4,N
1680328535.9,286046997.4,N
1680328555.8,286046997.0,N
1680328575.6,286046999.4,N
1680328595.4,286046999.6,N
1680328615.3,286046998.9,N
1680328635.1,286046998.5,N
1680328655.8,286047001.1,N
1680328675.7,286047000.7,N
1680328695.5,286047000.2,N
1680328715.4,286047000.6,N
1680328735.2,286046997.0,N
1680328755.0,286046999.5,N
1680328755.9,286046999.5,N
1680328775.8,286047000.4,N
1680328795.6,286047000.5,N
